TimeEDT,TemperatureF,Dew PointF,Humidity,Sea Level PressureIn,VisibilityMPH,Wind Direction,Wind SpeedMPH,Gust SpeedMPH,PrecipitationIn,Events,Conditions,WindDirDegrees,DateUTC
12:53 AM,44.1,43.0,96,30.12,9.0,Calm,Calm,-,N/A,,Clear,0,2011-10-24 04:53:00
1:53 AM,42.1,41.0,96,30.11,5.0,Calm,Calm,-,N/A,,Clear,0,2011-10-24 05:53:00
2:53 AM,41.0,41.0,100,30.10,5.0,Calm,Calm,-,N/A,,Clear,0,2011-10-24 06:53:00
3:53 AM,41.0,39.9,96,30.08,7.0,Calm,Calm,-,N/A,,Clear,0,2011-10-24 07:53:00
4:53 AM,42.1,41.0,96,30.08,6.0,Calm,Calm,-,N/A,,Clear,0,2011-10-24 08:53:00
5:53 AM,41.0,41.0,100,30.09,5.0,Calm,Calm,-,N/A,,Clear,0,2011-10-24 09:53:00
6:53 AM,41.0,41.0,100,30.09,5.0,Calm,Calm,-,N/A,,Clear,0,2011-10-24 10:53:00
7:53 AM,42.1,41.0,96,30.09,4.0,Calm,Calm,-,N/A,,Clear,0,2011-10-24 11:53:00
8:53 AM,46.0,45.0,96,30.11,6.0,Calm,Calm,-,N/A,,Clear,0,2011-10-24 12:53:00
9:53 AM,50.0,46.9,89,30.11,9.0,Calm,Calm,-,N/A,,Clear,0,2011-10-24 13:53:00
10:53 AM,57.2,48.2,72,30.12,10.0,Variable,3.5,-,N/A,,Clear,0,2011-10-24 14:53:00
11:53 AM,64.0,48.9,58,30.10,10.0,WNW,5.8,-,N/A,,Clear,290,2011-10-24 15:53:00
12:53 PM,68.0,48.0,49,30.07,10.0,SW,6.9,-,N/A,,Clear,230,2011-10-24 16:53:00
1:53 PM,69.1,42.1,38,30.04,10.0,Calm,Calm,-,N/A,,Overcast,0,2011-10-24 17:53:00
2:53 PM,69.8,41.0,35,30.04,10.0,WSW,4.6,-,N/A,,Clear,240,2011-10-24 18:53:00
3:53 PM,70.0,44.1,39,30.01,10.0,Calm,Calm,-,N/A,,Clear,0,2011-10-24 19:53:00
4:53 PM,70.0,44.1,39,30.00,10.0,SW,6.9,-,N/A,,Clear,220,2011-10-24 20:53:00
5:53 PM,66.9,46.0,47,30.00,10.0,SSW,3.5,-,N/A,,Clear,200,2011-10-24 21:53:00
6:53 PM,57.0,50.0,77,30.02,10.0,Calm,Calm,-,N/A,,Clear,0,2011-10-24 22:53:00
7:53 PM,54.0,48.0,80,30.04,10.0,Calm,Calm,-,N/A,,Partly Cloudy,0,2011-10-24 23:53:00
8:53 PM,52.0,46.9,83,30.06,10.0,Calm,Calm,-,N/A,,Partly Cloudy,0,2011-10-25 00:53:00
9:53 PM,57.2,46.4,67,30.09,10.0,WNW,3.5,-,N/A,,Clear,290,2011-10-25 01:53:00
10:53 PM,48.2,46.4,93,30.11,10.0,SW,4.6,-,N/A,,Clear,220,2011-10-25 02:53:00
11:53 PM,51.1,46.0,83,30.10,10.0,Calm,Calm,-,N/A,,Clear,0,2011-10-25 03:53:00